• Join FlightAware (Why Join?)
  • Login
  • US Flag GB Flag 
13:55 EST


 

Airport Tracker/Info


-or-


 

Live Flight TrackerFlight Track Log ✈ SWA2436 ✈ 10-Apr-2013 ✈ KMSY - KHOU

Flight Track Log - Related Links

Times and Time Zones

All times are in EDT time to prevent confusion due to time zone crossing. See the SWA2436 flight status page for this flight to view local times or setup timezone preferences in your user account.

Time Position Orientation Groundspeed Altitude Reporting Facility
EDT Latitude Longitude Course Direction KTS MPH feet Rate Location/Type
23:55 29.9761 -90.2564 196° South 133 153 1,300  Level Houston Center
23:56 29.9564 -90.2628 196° South 169 194 2,300 2,581 Climbing Houston Center
23:57 29.9478 -90.3242 261° West 230 265 5,300 3,124 Climbing Houston Center
23:58 29.9442 -90.4056 267° West 243 280 8,600 3,074 Climbing Houston Center
23:59 29.9389 -90.5022 266° West 286 329 11,500 2,902 Climbing Houston Center
00:00 29.9300 -90.6181 265° West 347 399 14,500 3,000 Climbing Houston Center
00:01 29.9228 -90.7411 266° West 375 432 17,600 3,098 Climbing Houston Center
00:02 29.9072 -90.8700 262° West 398 458 20,800 2,852 Climbing Houston Center
00:03 29.8547 -90.9908 243° Southwest 421 484 23,400 2,361 Climbing Houston Center
00:04 29.8042 -91.1153 245° Southwest 427 491 25,600 3,273 Climbing Houston Center
00:05 29.7414 -91.2672 245° Southwest 437 503 30,000 3,868 Climbing Houston Center
00:06 29.6950 -91.3769 244° Southwest 394 453 33,400 2,066 Climbing Houston Center
00:07 29.6525 -91.4853 246° West 376 433 34,200 1,574 Climbing Houston Center
00:08 29.6092 -91.5894 244° Southwest 367 422 36,600 2,182 Climbing Houston Center
00:09 29.5667 -91.6894 244° Southwest 354 407 38,600 1,686 Climbing Houston Center
00:10 29.5231 -91.7922 244° Southwest 345 397 40,000 689 Climbing Houston Center
00:11 29.4836 -91.8892 245° Southwest 340 391 40,000  Level Houston Center
00:12 29.4436 -91.9853 244° Southwest 336 387 40,000  Level Houston Center
00:13 29.4039 -92.0806 244° Southwest 331 381 40,000  Level Houston Center
00:14 29.3642 -92.1775 245° Southwest 335 386 40,000  Level Houston Center
00:15 29.3242 -92.2725 244° Southwest 331 381 40,000  Level Houston Center
00:16 29.2842 -92.3681 244° Southwest 332 382 40,000  Level Houston Center
00:17 29.2453 -92.4650 245° Southwest 333 383 40,000  Level Houston Center
00:18 29.2444 -92.5722 270° West 340 391 40,000  Level Houston Center
00:19 29.2472 -92.6797 272° West 340 391 40,000  Level Houston Center
00:20 29.2486 -92.7864 271° West 336 387 40,000  Level Houston Center
00:21 29.2500 -92.8928 271° West 333 383 40,000 -446 Level Houston Center
00:22 29.2525 -92.9992 272° West 334 384 39,100 -893 Descending Houston Center
00:23 29.2539 -93.1056 271° West 334 384 38,200 -893 Descending Houston Center
00:24 29.2556 -93.2150 271° West 340 391 37,300 -2,380 Descending Houston Center
00:25 29.2575 -93.3231 271° West 341 392 33,400 -4,082 Descending Houston Center
00:26 29.2583 -93.4436 270° West 372 428 29,000 -3,917 Descending Houston Center
00:27 29.2603 -93.5711 271° West 395 455 25,500 -2,231 Descending Houston Center
00:28 29.2619 -93.7097 271° West 428 493 24,500 -992 Descending Houston Center
00:29 29.2628 -93.8444 270° West 425 489 23,500 -1,041 Descending Houston Center
00:30 29.2644 -93.9869 271° West 420 483 22,400 -2,040 Descending Houston Center
00:31 29.2642 -94.0853 270° West 413 475 20,100 -3,148 Descending Houston Center
00:31 29.2650 -94.1167 272° West 413 475 19,200 -3,049 Descending Houston Center
00:32 29.2664 -94.2097 271° West 396 456 17,000 -2,900 Descending Houston Center
00:32 29.2692 -94.2417 276° West 399 459 16,300 -3,100 Descending Houston Center
00:33 29.2828 -94.3322 280° West 390 449 13,900 -2,754 Descending Houston Center
00:33 29.2875 -94.3639 280° West 394 453 13,500 -1,309 Descending Houston Center
00:34 29.2956 -94.4383 277° West 354 407 12,700 -1,475 Descending Houston Center
00:34 29.3017 -94.4736 281° West 357 411 12,000 -1,970 Descending Houston Center
00:35 29.3136 -94.5583 279° West 330 380 10,500 -2,000 Descending Houston Center
00:35 29.3172 -94.5775 282° West 334 384 10,000 -393 Descending Houston Center
00:36 29.3297 -94.6572 280° West 298 343 10,100  Climbing Houston Center
00:36 29.3322 -94.6739 280° West 312 359 10,000 -1,000 Descending Houston Center
00:37 29.3447 -94.7486 281° West 288 331 9,100 -1,300 Descending Houston Center
00:37 29.3467 -94.7639 278° West 292 336 8,700 -1,522 Descending Houston Center
00:38 29.3592 -94.8525 279° West 292 336 7,400 -1,574 Descending Houston Center
00:38 29.3608 -94.8553 305° West 290 334 7,100 -1,279 Descending Houston Center
00:39 29.3719 -94.9444 278° West 282 325 6,100 -1,082 Descending Houston Center
00:39 29.3725 -94.9447 336° Northwest 284 327 6,000  Descending Houston Center
00:40 29.3833 -95.0197 279° West 228 262 6,100 56 Climbing Houston Center
00:41 29.3944 -95.0928 280° West 229 264 6,100  Level Houston Center
00:42 29.4058 -95.1681 280° West 227 261 6,100  Level Houston Center
00:43 29.4164 -95.2364 280° West 232 267 6,100 -436 Level Houston Center
00:44 29.4286 -95.3019 282° West 229 264 5,300 -892 Descending Houston Center
00:44 29.4283 -95.3117 268° West 231 266 5,000 -197 Descending Houston Center
00:45 29.4247 -95.3722 266° West 221 254 5,100  Climbing Houston Center
00:45 29.4214 -95.3967 261° West 225 259 5,000 -197 Descending Houston Center
00:46 29.4164 -95.4428 263° West 218 251 4,900 -393 Descending Houston Center
00:46 29.4244 -95.4625 295° West 219 252 4,600 -889 Descending Houston Center
00:47 29.4608 -95.4686 352° North 224 258 4,100 -1,000 Descending Houston Center
00:47 29.4822 -95.4572 25° Northeast 220 253 3,600 -689 Descending Houston Center
00:48 29.5058 -95.4319 43° Northeast 189 217 3,400 -590 Descending Houston Center
00:48 29.5208 -95.4161 43° Northeast 198 228 3,000 -590 Descending Houston Center
00:49 29.5419 -95.3917 45° Northeast 165 190 2,800 -600 Descending Houston Center
00:49 29.5544 -95.3781 43° Northeast 182 209 2,400 -833 Descending Houston Center
00:50 29.5803 -95.3511 42° Northeast 158 182 1,800 -716 Descending Houston Center
00:51 29.6031 -95.3242 46° Northeast 113 130 1,100 -639 Descending Houston Center
00:52 29.6258 -95.3000 43° Northeast 111 128 500 -451 Descending Houston Center
00:54 29.6544 -95.2706 42° Northeast 119 137 100 -333 Descending Houston Center